Regional Weather Roundup
Issued by NWS Portland, ME

Current Version | Previous Version | Text Only | Print | Product List | Glossary Off
Versions: 1 2 3 4 5 6 7 8 9 10 11 12 13 14 15 16 17 18 19 20 21 22 23 24 25 26 27 28 29 30 31 32 33 34 35 36 37 38 39 40 41 42 43 44 45 46 47 48 49 50

000
ASUS41 KGYX 231205
RWRGYX
WEATHER ROUNDUP FOR MAINE AND NEW HAMPSHIRE
NATIONAL WEATHER SERVICE GRAY ME
700 AM EST WED JAN 23 2019

MEZ002-005-006-010-012-015-018-020-021-024-026-027-029-231300-
MAINE

CITY           SKY/WX    TMP DP  RH WIND       PRES   REMARKS
PORTLAND       CLOUDY    19   2  47 S9        30.34F
6HR MIN TEMP:  11; 6HR MAX TEMP:  19;

SANFORD        MOCLDY    16   0  49 S5        30.33F
BAR HARBOR     MOCLDY    11   1  64 CALM      30.39S
WISCASSET      MOCLDY    11   3  70 CALM      30.37F
6HR MIN TEMP:   6; 6HR MAX TEMP:  11;

ROCKLAND       MOCLDY     9  -1  64 W3        30.37F
FRYEBURG       CLOUDY     8   0  69 CALM      30.30F
6HR MIN TEMP:   4; 6HR MAX TEMP:  10;

LEWISTONAUBURN CLOUDY    13  -2  51 S5        30.32F
AUGUSTA        CLOUDY    12  -3  51 S8        30.32F
6HR MIN TEMP:  11; 6HR MAX TEMP:  14;

WATERVILLE     FAIR      12  -3  51 MISG      30.29F
BANGOR         MOCLDY     6  -2  69 CALM      30.36F
6HR MIN TEMP:   0; 6HR MAX TEMP:   7;

GREENVILLE       N/A     10 -10  40 S9        30.16F
6HR MIN TEMP:   2; 6HR MAX TEMP:  10;

MILLINOCKET    CLOUDY     3  -5  69 E5        30.32F
6HR MIN TEMP:   2; 6HR MAX TEMP:   8;

HOULTON        MOCLDY     3  -7  63 S6        30.31R
6HR MIN TEMP:   1; 6HR MAX TEMP:   5;

PRESQUE ISLE   FAIR       3  -5  69 S3        30.28F
6HR MIN TEMP:   2; 6HR MAX TEMP:   3;

FRENCHVILLE    CLOUDY     3  -7  63 SE9       30.19F
6HR MIN TEMP:   1; 6HR MAX TEMP:   3;

CARIBOU        CLOUDY     4  -6  63 SE5       30.25F
6HR MIN TEMP:   3; 6HR MAX TEMP:   4;

$$

NHZ002-005-008-009-011-012-014-231300-
NEW HAMPSHIRE

CITY           SKY/WX    TMP DP  RH WIND       PRES   REMARKS
PORTSMOUTH     CLOUDY    19   2  47 S8        30.34F
ROCHESTER      MOCLDY    16   0  49 S6        30.32F
6HR MIN TEMP:  12; 6HR MAX TEMP:  16;

NASHUA         MOCLDY    19   9  65 VRB3      30.33F
MANCHESTER     MOCLDY    22   5  48 S7        30.31F
6HR MIN TEMP:  12; 6HR MAX TEMP:  22;

CONCORD        FAIR      19   2  47 S9        30.30F
6HR MIN TEMP:  11; 6HR MAX TEMP:  19;

LACONIA        CLOUDY    14   2  58 NW3       30.28F
PLYMOUTH       CLOUDY    11   1  63 CALM      30.30S
BERLIN         LGT SNOW   4   0  83 CALM      30.19F FOG
6HR MIN TEMP:   0; 6HR MAX TEMP:   5; 6HR PCP:  0.01;

WHITEFIELD     FLURRIES   6   2  83 CALM      30.19F
6HR MIN TEMP:  -1; 6HR MAX TEMP:   6; 6HR PCP:  0.01;

JAFFREY        FAIR      22  10  60 S8        30.26F
6HR MIN TEMP:   9; 6HR MAX TEMP:  22;

KEENE          FAIR      16   9  74 CALM      30.29F
LEBANON        CLOUDY    16   6  65 CALM      30.24F
6HR MIN TEMP:   9; 6HR MAX TEMP:  16;

MT WASHINGTON  BLWGSNOW  16  16 100 W55G71      N/A  VSB 1/16WCI -10
6HR MIN TEMP:   7; 6HR MAX TEMP:  16; 6HR PCP:  0.03;

$$

VTZ005-007-008-231300-
VERMONT

CITY           SKY/WX    TMP DP  RH WIND       PRES   REMARKS
ST JOHNSBURY     N/A      6   2  83 MISG      30.21F
MONTPELIER     CLOUDY    14   5  67 CALM      30.20F
BURLINGTON     CLOUDY    24   5  44 S17G24    30.17R WCI  11
$$

MAZ007-012-024-CTZ003-RIZ002-NYZ038-NYZ072-231300-
SOUTHERN NEW ENGLAND AND NY

CITY           SKY/WX    TMP DP  RH WIND       PRES   REMARKS
BOSTON         CLOUDY    24  12  60 S8        30.38F
WORCESTER      FAIR      19  13  77 SW13      30.29F WCI   6
NANTUCKET      FAIR      34  26  72 SW13      30.44F
PROVIDENCE     MOCLDY    22  16  78 SW5       30.39F
HARTFORD       CLOUDY    18  13  80 W3        30.36S
ALBANY         CLOUDY    25   8  48 S13       30.29R WCI  14
NEW YORK CITY  MOCLDY    32  15  49 SW9       30.38S
$$

ANZ081-ANZ082-ANZ150-NHZ014-MEZ023>029-231300-
COASTAL MARINE OBSERVATIONS

STATION/POSITION TIME  TEMP    WIND        PRES    WAVE
                       AIR SEA DIR/SP/G            HT/PER
                 (UTC) (F)     (DEG/KT/KT) (MB)    (FT/S)
MOUNT DESERT ROC 1100   27     210/  7/  9 1029.7F
MATINICUS ROCK   1100   30     200/ 18/ 21 1028.3F
ISLE OF SHOALS   1100   28     210/ 20/ 22 1028.8F
JEFFREYS LEDGE   1138      40                N/A     3/ 4
CASHES LEDGE BUO 1150   32 39              1029.6F   3/ 4
$$

.............KEY..............
   WCI - WIND CHILL
   TC  - TEMPERATURE IN CELSIUS
   VSB - VISIBILITY IN MILES
   HX  - HEAT INDEX
   FAIR- INDICATES FEW OR NO CLOUDS BELOW 12,000 FT, WITH NO
         SIGNIFICANT WEATHER AND/OR OBSTRUCTIONS TO VISIBILITY.





USA.gov is the U.S. government's official web portal to all federal, state and local government web resources and services.